sat.trackr.live / text

‹ back to catalog

STARLINK-34658

NORAD 64802 · 2025-150N

PAYLOAD ACTIVE UNKNOWN

§ Identity

Operator
Country
US
Launch date
2025-07-16
Launch site
AFWTR
Launch vehicle
Mass (kg)
RCS (m²)

Purposes: comms

External: N2YO · Heavens-Above · Gunter

§ Orbital elements

Epoch: 2026-09-20T13:37:35.958720Z

Period
96.11 min
Inclination
70.0030°
Eccentricity
0.0003542
Mean motion
14.98335500 rev/d
Perigee alt
569.6 km
Apogee alt
574.5 km
Semi-major
6,950.2 km
B*
1.8561e-4
RAAN
3.2536°
Arg perigee
268.0556°
Mean anomaly
92.0197°
Rev number
6,570

§ Raw data

STARLINK-346581 64802U 25150N   26263.56777730  .00002123  00000+0  18561-3 0  99952 64802  70.0030   3.2536 0003542 268.0556  92.0197 14.98335500 65701

JSON: /api/v1/satellites/64802 · /tle

For live sub-satellite position, see the globe view (requires WebGL).

§ Visibility from observer

Set your observer location to see the next 7 days of passes ≥ 10°. The values pass through the URL so the page stays shareable.

No JS? Fill the form by hand. The geolocation button needs JavaScript.